Location: *
(32.8667°N, 13.1833°E)
Time: 10:01:56
(UTC+00:00)

CZ-2C R/B - Pass Details

Date: 18 July 2019
Orbit: 784 x 871 km, 98.3° (Epoch: 19 August)

Event Time Altitude Azimuth Distance (km) Brightness Sun altitude
Rises 19:40:45 0° 21° (NNE) 3,299 6.0 -16.0°
Reaches altitude 10° 19:43:13 10° 29° (NNE) 2,358 5.2 -16.4°
Maximum altitude 19:48:06 41° 99° (E) 1,128 3.0 -17.2°
Enters shadow 19:50:02 29° 145° (SE) 1,395 3.3 -17.5°
